Hourly Data Report for July 20, 2017

TORONTO CITY
ONTARIO

43°40'00.000" N
79°24'00.000" W
112.50 m
6158355
71508
XTO

Download Data

Hourly Data (July 2017)
Hourly Data Report for July 20, 2017
TIME
LST
Temp Definition
°C
Dew Point Definition
°C
Rel Hum Definition
%
Precip. Amount Definition
mm

Wind Dir Definition
10's deg

Wind Spd Definition
km/h
Visibility Definition
km
Stn Press Definition
kPa
Hmdx Definition


Wind Chill Definition


Weather Definition


00:00 21.4 15.2 68 0.0 LegendMM LegendMM   100.31 25   LegendNANA
01:00 20.1 14.6 71 0.0 LegendMM LegendMM   100.29     LegendNANA
02:00 19.8 13.9 69 0.0 LegendMM LegendMM   100.22     LegendNANA
03:00 18.4 13.6 74 0.0 LegendMM LegendMM   100.21     LegendNANA
04:00 17.9 13.5 75 0.0 LegendMM LegendMM   100.23     LegendNANA
05:00 18.4 12.8 70 0.0 LegendMM LegendMM   100.18     LegendNANA
06:00 18.6 12.4 67 0.0 LegendMM LegendMM   100.20     LegendNANA
07:00 20.7 12.6 60 0.0 LegendMM LegendMM   100.21     LegendNANA
08:00 21.4 14.6 65 0.0 LegendMM LegendMM   100.15 25   LegendNANA
09:00 22.2 12.3 53 0.0 LegendMM LegendMM   100.08 25   LegendNANA
10:00 20.2 13.8 66 0.7 LegendMM LegendMM   100.14     LegendNANA
11:00 16.0 14.4 90 23.0 LegendMM LegendMM   100.28     LegendNANA
12:00 16.2 14.0 87 3.3 LegendMM LegendMM   100.16     LegendNANA
13:00 18.8 14.3 75 0.0 LegendMM LegendMM   100.08     LegendNANA
14:00 21.8 15.9 69 0.0 LegendMM LegendMM   100.03 26   LegendNANA
15:00 21.5 14.6 65 0.0 LegendMM LegendMM   100.01 25   LegendNANA
16:00 22.0 14.6 63 0.0 LegendMM LegendMM   99.96 26   LegendNANA
17:00 22.3 15.1 64 0.0 LegendMM LegendMM   99.91 26   LegendNANA
18:00 22.7 15.8 65 0.0 LegendMM LegendMM   99.85 27   LegendNANA
19:00 22.4 15.9 67 0.0 LegendMM LegendMM   99.86 27   LegendNANA
20:00 21.3 16.2 73 0.0 LegendMM LegendMM   99.87 26   LegendNANA
21:00 20.8 16.8 78 0.0 LegendMM LegendMM   99.88 26   LegendNANA
22:00 20.6 17.1 81 0.0 LegendMM LegendMM   99.89 26   LegendNANA
23:00 20.1 17.3 84 0.0 LegendMM LegendMM   99.91 26   LegendNANA

Notes on Data Quality.

Legend

  • E = Estimated
  • M = Missing
  • NA = Not Available*
  • [empty] = Indicates an unobserved value
Date modified: